TimeEDT,TemperatureF,Dew PointF,Humidity,Sea Level PressureIn,VisibilityMPH,Wind Direction,Wind SpeedMPH,Gust SpeedMPH,PrecipitationIn,Events,Conditions,WindDirDegrees,DateUTC
1:35 AM,46.4,37.4,71,30.37,10.0,Calm,Calm,-,N/A,,Clear,0,2012-10-13 05:35:00
2:35 AM,42.8,39.2,87,30.38,7.0,Calm,Calm,-,N/A,,Scattered Clouds,0,2012-10-13 06:35:00
2:55 AM,42.8,37.4,81,30.38,10.0,Calm,Calm,-,N/A,,Clear,0,2012-10-13 06:55:00
3:15 AM,42.8,37.4,81,30.39,10.0,Calm,Calm,-,N/A,,Clear,0,2012-10-13 07:15:00
3:35 AM,41.0,37.4,87,30.39,10.0,Calm,Calm,-,N/A,,Clear,0,2012-10-13 07:35:00
4:35 AM,41.0,37.4,87,30.40,10.0,Calm,Calm,-,N/A,,Clear,0,2012-10-13 08:35:00
5:15 AM,39.2,35.6,87,30.41,10.0,Calm,Calm,-,N/A,,Clear,0,2012-10-13 09:15:00
5:35 AM,37.4,35.6,93,30.41,10.0,Calm,Calm,-,N/A,,Clear,0,2012-10-13 09:35:00
6:15 AM,35.6,33.8,93,30.42,10.0,Calm,Calm,-,N/A,,Clear,0,2012-10-13 10:15:00
6:55 AM,35.6,32.0,87,30.43,10.0,Calm,Calm,-,N/A,,Clear,0,2012-10-13 10:55:00
7:35 AM,35.6,30.2,81,30.44,10.0,Calm,Calm,-,N/A,,Clear,0,2012-10-13 11:35:00
7:55 AM,37.4,30.2,75,30.44,10.0,Calm,Calm,-,N/A,,Clear,0,2012-10-13 11:55:00
8:15 AM,37.4,30.2,75,30.44,10.0,Calm,Calm,-,N/A,,Clear,0,2012-10-13 12:15:00
8:35 AM,39.2,30.2,70,30.44,10.0,Calm,Calm,-,N/A,,Clear,0,2012-10-13 12:35:00
8:55 AM,41.0,30.2,65,30.45,10.0,Calm,Calm,-,N/A,,Clear,0,2012-10-13 12:55:00
9:55 AM,42.8,30.2,61,30.46,10.0,South,5.8,-,N/A,,Overcast,170,2012-10-13 13:55:00
10:15 AM,42.8,30.2,61,30.47,10.0,South,4.6,-,N/A,,Overcast,170,2012-10-13 14:15:00
10:35 AM,42.8,30.2,61,30.46,10.0,Calm,Calm,-,N/A,,Overcast,0,2012-10-13 14:35:00
10:55 AM,44.6,30.2,57,30.46,10.0,SE,3.5,-,N/A,,Mostly Cloudy,140,2012-10-13 14:55:00
11:15 AM,46.4,32.0,57,30.46,10.0,SE,6.9,-,N/A,,Scattered Clouds,130,2012-10-13 15:15:00
12:35 PM,50.0,33.8,54,30.43,10.0,SSE,4.6,-,N/A,,Clear,150,2012-10-13 16:35:00
12:55 PM,51.8,35.6,54,30.43,10.0,South,4.6,-,N/A,,Clear,170,2012-10-13 16:55:00
1:35 PM,51.8,35.6,54,30.40,10.0,SE,8.1,-,N/A,,Clear,140,2012-10-13 17:35:00
1:55 PM,53.6,37.4,54,30.39,10.0,South,8.1,-,N/A,,Clear,180,2012-10-13 17:55:00
2:15 PM,53.6,37.4,54,30.38,10.0,South,4.6,-,N/A,,Clear,170,2012-10-13 18:15:00
2:35 PM,55.4,37.4,51,30.37,7.0,SE,6.9,-,N/A,,Clear,140,2012-10-13 18:35:00
2:55 PM,55.4,39.2,54,30.37,10.0,SE,3.5,-,N/A,,Clear,140,2012-10-13 18:55:00
3:15 PM,55.4,39.2,54,30.36,10.0,South,4.6,-,N/A,,Clear,170,2012-10-13 19:15:00
3:35 PM,55.4,39.2,54,30.36,10.0,SSE,4.6,-,N/A,,Clear,160,2012-10-13 19:35:00
3:55 PM,55.4,39.2,54,30.36,10.0,South,4.6,-,N/A,,Clear,170,2012-10-13 19:55:00
4:15 PM,55.4,39.2,54,30.36,10.0,SSE,4.6,-,N/A,,Clear,150,2012-10-13 20:15:00
4:35 PM,55.4,39.2,54,30.34,10.0,SSE,3.5,-,N/A,,Clear,160,2012-10-13 20:35:00
4:55 PM,55.4,41.0,58,30.33,10.0,SSE,5.8,-,N/A,,Clear,150,2012-10-13 20:55:00
5:15 PM,53.6,41.0,62,30.33,10.0,SE,5.8,-,N/A,,Clear,140,2012-10-13 21:15:00
5:35 PM,53.6,41.0,62,30.34,10.0,SSE,4.6,-,N/A,,Clear,160,2012-10-13 21:35:00
5:55 PM,53.6,41.0,62,30.34,10.0,SE,5.8,-,N/A,,Clear,140,2012-10-13 21:55:00
6:15 PM,51.8,41.0,67,30.35,10.0,SSE,4.6,-,N/A,,Clear,150,2012-10-13 22:15:00
6:35 PM,51.8,41.0,67,30.34,10.0,SSE,4.6,-,N/A,,Clear,160,2012-10-13 22:35:00
6:55 PM,50.0,41.0,71,30.35,10.0,SSE,3.5,-,N/A,,Clear,150,2012-10-13 22:55:00
7:15 PM,50.0,41.0,71,30.35,10.0,Calm,Calm,-,N/A,,Clear,0,2012-10-13 23:15:00
7:35 PM,48.2,41.0,76,30.36,10.0,Calm,Calm,-,N/A,,Clear,0,2012-10-13 23:35:00
7:55 PM,46.4,41.0,81,30.36,10.0,Calm,Calm,-,N/A,,Clear,0,2012-10-13 23:55:00
8:15 PM,46.4,41.0,81,30.36,10.0,Calm,Calm,-,N/A,,Clear,0,2012-10-14 00:15:00
8:35 PM,46.4,41.0,81,30.36,10.0,Calm,Calm,-,N/A,,Clear,0,2012-10-14 00:35:00
8:55 PM,44.6,41.0,87,30.36,10.0,Calm,Calm,-,N/A,,Clear,0,2012-10-14 00:55:00
9:15 PM,46.4,41.0,81,30.36,10.0,South,3.5,-,N/A,,Clear,170,2012-10-14 01:15:00
9:35 PM,46.4,41.0,81,30.36,10.0,South,3.5,-,N/A,,Clear,170,2012-10-14 01:35:00
10:15 PM,44.6,41.0,87,30.36,10.0,South,3.5,-,N/A,,Clear,170,2012-10-14 02:15:00
10:35 PM,44.6,41.0,87,30.35,10.0,Calm,Calm,-,N/A,,Clear,0,2012-10-14 02:35:00
10:55 PM,44.6,41.0,87,30.35,10.0,SSE,3.5,-,N/A,,Clear,150,2012-10-14 02:55:00
11:15 PM,44.6,41.0,87,30.35,10.0,Calm,Calm,-,N/A,,Clear,0,2012-10-14 03:15:00
11:35 PM,44.6,41.0,87,30.35,10.0,Calm,Calm,-,N/A,,Clear,0,2012-10-14 03:35:00
11:55 PM,44.6,41.0,87,30.34,10.0,Calm,Calm,-,N/A,,Clear,0,2012-10-14 03:55:00